Location: Davayat
(45.9471°N, 3.1105°E)
Time: 17:15:59
(UTC+00:00)

USA 267 - Pass Details

Date: 01 December 2020
Orbit: 1100 x 1107 km, 123.0° (Epoch: 18 January)

Event Time Altitude Azimuth Distance (km) Brightness Sun altitude
Exits shadow 17:34:03 21° 75° (ENE) 2,255 4.2 -15.1°
Maximum altitude 17:38:00 42° 18° (NNE) 1,528 3.8 -15.8°
Drops below altitude 10° 17:44:03 10° 310° (NW) 2,969 6.0 -16.8°
Sets 17:46:40 0° 304° (NW) 3,929 6.8 -17.2°
